Regional Weather Roundup
Issued by NWS

Home | Current Version | Previous Version | Text Only | Print | Product List | Glossary On
Versions: 1 2 3 4 5 6 7 8 9 10 11 12 13 14 15 16 17 18 19 20 21 22 23 24 25 26 27 28 29 30 31 32 33 34 35 36 37 38 39 40 41 42 43 44 45 46 47 48 49 50
000
ASUS43 KTOP 240359
RWRKS

WEATHER ROUNDUP FOR KANSAS
NATIONAL WEATHER SERVICE GOODLAND KS
1100 PM CDT WED JUL 23 2014

NOTE:  "FAIR" INDICATES FEW OR NO CLOUDS BELOW 12,000 FEET WITH NO
SIGNIFICANT WEATHER AND/OR OBSTRUCTIONS TO VISIBILITY.

KSZ001>006-013>018-027>032-041>047-240500-
NORTHWEST KANSAS

CITY           SKY/WX    TMP DP  RH WIND       PRES   REMARKS
GOODLAND       MOCLDY    77  64  64 SE13      30.20R
HAYS           CLEAR     73  61  64 E8        30.16R
HILL CITY      CLEAR     71  64  78 E3        30.17R
RUSSELL        CLEAR     74  63  68 E9        30.14R
$$

KSZ061>065-074>080-084>089-240500-
SOUTHWEST KANSAS

CITY           SKY/WX    TMP DP  RH WIND       PRES   REMARKS
DODGE CITY     CLEAR     76  69  79 SE7       30.17R
ELKHART          N/A     72  65  79 SE7         N/A
GARDEN CITY    PTCLDY    76  69  79 E10       30.17R
GREAT BEND     CLEAR     75  64  69 E8        30.14S
LIBERAL        PTCLDY    82  66  57 E12       30.19R
$$

KSZ066>073-081>083-090>101-240500-
SOUTHEAST KANSAS

CITY           SKY/WX    TMP DP  RH WIND       PRES   REMARKS
CHANUTE        CLEAR     76  66  71 NE7       30.11R
COFFEYVILLE    CLEAR     73  69  87 E5        30.09R
HUTCHINSON     CLEAR     75  64  68 E6        30.14R
MEDICINE LODGE   N/A     79  66  64 E7        30.13R
NEWTON         CLEAR     75  61  60 E5        30.18R
PARSONS        CLEAR     72  67  84 CALM      30.12R
WICHITA INTL   CLEAR     78  64  61 E6        30.13R
WICHITA JABRA  CLEAR     75  65  70 CALM      30.13R
WINFIELD       CLEAR     74  70  87 CALM      30.13R
$$

KSZ007>012-019>026-033>040-048>060-102>105-240500-
NORTHEAST KANSAS

CITY           SKY/WX    TMP DP  RH WIND       PRES   REMARKS
CONCORDIA      CLEAR     71  62  73 E3        30.16R
EMPORIA        CLEAR     72  65  78 NE6       30.13S
LAWRENCE       CLEAR     73  64  73 NE7       30.13R
MANHATTAN      CLEAR     72  63  73 CALM      30.14R
OLATHE IND     CLEAR     73  62  68 NE3       30.15R
OLATHE EXE     CLEAR     74  62  66 NE5       30.14R
SALINA         CLEAR     80  61  52 E9        30.14R
TOPEKA BILLARD CLEAR     74  66  76 CALM      30.14R
TOPEKA FORBES  CLEAR     75  64  68 NE3       30.14R
$$



USA.gov is the U.S. government's official web portal to all federal, state and local government web resources and services.